[[{"header":{"parameterUnit":"m.s-1","parameterCategory":1,"la1":30.2991,"la2":30.254,"lo1":-89.0895,"lo2":-89.0444,"dy":0.0017,"dx":0.0017,"nx":28,"ny":28,"refTime":"2023-10-11T03:00:00:Z","depth":0,"parameterNumber":2,"parameterNumberName":"U-component_of_WINDS"},"data":[0,0,0,0,0,0,0,0,0,0,0,0,0,0,0,0,0,0,0,0,0,0,0,0,0,0,0,0,0,0,0,0,0,0,0,0,0,0,0,0,0,0,0,0,0,0,0,0,0,0,0,0,0,0,0,0,0,0,-0.8805,-0.8805,0,-0.88,-0.88,-0.88,-0.8759,-0.8758,-0.8757,-0.8756,-0.8752,-0.8753,-0.8754,0,0,0,0,0,0,0,0,0,0,0,0,0,-0.8781,-0.8782,-0.8805,-0.8805,-0.8805,-0.88,-0.88,-0.88,-0.8759,-0.8758,-0.8757,-0.8756,-0.8752,-0.8753,-0.8754,0,0,0,0,0,0,0,0,0,0,0,0,0,-0.8786,-0.8782,-0.8805,-0.8784,-0.8782,-0.88,-0.88,-0.88,-0.8759,-0.8758,-0.8756,-0.8755,-0.8752,-0.8753,-0.8754,-0.8793,0,0,-0.8758,-0.8759,0,0,0,0,0,0,0,0,-0.8785,-0.8787,-0.8787,-0.8786,-0.8783,-0.8779,-0.879,-0.8798,-0.876,-0.8768,-0.8756,-0.8754,-0.8762,-0.8763,-0.8765,-0.8793,-0.8793,-0.8758,-0.8759,-0.876,-0.876,0,0,0,0,0,0,0,-0.8785,-0.8787,-0.8803,-0.8787,-0.8785,-0.8776,-0.8774,-0.8792,-0.8774,-0.8767,-0.8764,-0.8764,-0.8761,-0.8764,-0.8765,-0.8793,-0.8758,-0.8759,-0.876,-0.8761,-0.8854,-0.8855,0,0,0,0,0,0,-0.8788,-0.8787,-0.8803,-0.8803,-0.8781,-0.8777,-0.8776,-0.8782,-0.8774,-0.8771,-0.8766,-0.8762,-0.8763,-0.8763,-0.8765,-0.8811,-0.876,-0.8761,-0.8762,-0.8852,-0.8854,-0.8856,0,0,0,0,0,0,-0.8787,-0.8789,-0.8804,-0.8794,-0.8795,-0.8779,-0.8786,-0.8783,-0.8785,-0.8772,-0.8769,-0.8772,-0.8761,-0.8763,-0.8787,-0.881,-0.8761,-0.8763,-0.885,-0.8853,-0.8855,-0.8903,0,0,0,0,0,0,-0.8787,-0.879,-0.8803,-0.8795,-0.8796,-0.8825,-0.8787,-0.8784,-0.8788,-0.8783,-0.8777,-0.8775,-0.876,-0.8785,-0.8788,-0.8811,-0.8764,-0.8848,-0.8851,-0.8854,-0.8899,-0.8907,-0.8913,0,0,0,0,0,-0.8786,-0.8817,-0.8804,-0.8807,-0.8813,-0.8827,-0.8827,-0.881,-0.879,-0.8804,-0.8796,-0.8775,-0.8807,-0.8788,-0.8791,-0.8815,-0.8846,-0.885,-0.8854,-0.8896,-0.8905,-0.8913,0,0,0,0,0,0,-0.8829,-0.8815,-0.8801,-0.883,-0.883,-0.882,-0.8837,-0.882,-0.8825,-0.8821,-0.88,-0.8799,-0.8826,-0.8822,-0.8801,-0.8853,-0.8823,-0.8828,-0.8854,-0.8863,-0.887,-0.887,-0.8765,0,0,0,0,0,-0.8842,-0.8854,-0.8841,-0.8868,-0.8869,-0.8853,-0.8858,-0.8845,-0.8844,-0.8844,-0.8837,-0.8838,-0.8848,-0.8855,-0.8863,-0.8898,-0.8897,-0.8916,-0.8923,-0.8929,-0.8934,-0.8954,-0.8963,-0.8869,-0.8869,-0.8869,0,0,-0.8868,-0.8862,-0.8871,-0.8877,-0.8875,-0.8888,-0.8853,-0.8869,-0.8879,-0.8846,-0.8869,-0.8864,-0.8863,-0.8893,-0.8906,-0.8891,-0.896,-0.8934,-0.8939,-0.894,-0.8959,-0.8968,-0.8976,-0.8871,-0.8871,-0.887,0,0,-0.8924,-0.892,-0.8943,-0.8942,-0.894,-0.893,-0.8935,-0.8928,-0.8924,-0.8946,-0.8922,-0.8934,-0.8952,-0.8953,-0.8955,-0.9013,-0.8995,-0.9017,-0.9054,-0.9074,-0.9081,-0.9088,-0.911,-0.9118,-0.9021,-0.9021,-0.9021,0,-0.8958,-0.8977,-0.8957,-0.8974,-0.8978,-0.8949,-0.8973,-0.8973,-0.8974,-0.8978,-0.8961,-0.8984,-0.8981,-0.9012,-0.9026,-0.9029,-0.9035,-0.9018,-0.9082,-0.9088,-0.9094,-0.9115,-0.9123,-0.9024,-0.9024,-0.9024,-0.9023,0,-0.9019,-0.9033,-0.9051,-0.9053,-0.9059,-0.908,-0.9064,-0.9072,-0.9059,-0.9051,-0.9075,-0.9071,-0.9079,-0.9085,-0.9071,-0.9114,-0.9105,-0.9085,-0.9056,-0.9106,-0.9126,-0.9133,-0.9028,-0.9027,-0.9026,-0.9026,0,0,-0.9101,-0.9093,-0.91,-0.9102,-0.9098,-0.9108,-0.9128,-0.9136,-0.9144,-0.9146,-0.9164,-0.918,-0.9162,-0.9165,-0.9152,-0.9169,-0.9218,-0.9147,-0.9147,-0.9162,-0.9267,-0.9283,-0.9292,-0.9205,-0.9207,-0.9208,-0.9268,0,-0.9156,-0.9189,-0.9173,-0.9208,-0.9222,-0.9195,-0.9213,-0.9213,-0.9206,-0.9217,-0.921,-0.9223,-0.9197,-0.9199,-0.9215,-0.9208,-0.9239,-0.9204,-0.9222,-0.9223,-0.9225,-0.9302,-0.9319,-0.9375,-0.9275,-0.9276,-0.9277,0,-0.9225,-0.923,-0.9267,-0.9262,-0.9267,-0.9283,-0.929,-0.93,-0.9301,-0.9295,-0.9299,-0.9282,-0.9303,-0.9273,-0.9302,-0.9279,-0.9285,-0.9283,-0.9285,-0.9287,-0.9254,-0.9308,-0.9392,-0.9402,-0.9288,-0.9288,-0.9287,0,-0.9283,-0.9299,-0.9324,-0.9326,-0.932,-0.9332,-0.9331,-0.9329,-0.9336,-0.9342,-0.9346,-0.9355,-0.936,-0.9367,-0.9354,-0.9333,-0.9385,-0.9354,-0.9382,-0.9383,-0.9395,-0.9395,-0.9484,-0.9398,-0.9397,-0.9397,-0.9397,0,-0.9347,-0.9371,-0.935,-0.9366,-0.9392,-0.9373,-0.9401,-0.9396,-0.9396,-0.9411,-0.9388,-0.9403,-0.9383,-0.9397,-0.9386,-0.9413,-0.9415,-0.9412,-0.9409,-0.9414,-0.9415,-0.9419,-0.9415,-0.94,-0.9399,-0.9399,-0.9398,0,-0.9417,-0.9404,-0.9429,-0.9422,-0.9421,-0.9441,-0.9436,-0.945,-0.9442,-0.9462,-0.9465,-0.9453,-0.9468,-0.9455,-0.9469,-0.9462,-0.9498,-0.9489,-0.9498,-0.9496,-0.9526,-0.9524,-0.9621,-0.9634,-0.9539,-0.9539,-0.954,0,-0.9459,-0.9477,-0.9472,-0.948,-0.948,-0.9493,-0.95,-0.9483,-0.9491,-0.9493,-0.9508,-0.952,-0.953,-0.9554,-0.9548,-0.9559,-0.955,-0.9584,-0.9552,-0.9558,-0.9553,-0.9552,-0.9555,-0.9591,-0.9592,-0.9593,-0.9594,0,-0.9535,-0.9528,-0.9538,-0.9547,-0.9555,-0.9561,-0.9565,-0.9573,-0.9555,-0.9566,-0.958,-0.9588,-0.9602,-0.9616,-0.9625,-0.9624,-0.9607,-0.9604,-0.9611,-0.9618,-0.9623,-0.9622,-0.9517,-0.9602,-0.9601,-0.96,-0.96,-0.9599,-0.9594,-0.9609,-0.9608,-0.9621,-0.9622,-0.9627,-0.9641,-0.9635,-0.9646,-0.9657,-0.9646,-0.9664,-0.9666,-0.9676,-0.9678,-0.9693,-0.9679,-0.9689,-0.9692,-0.9695,-0.97,-0.962,-0.9694,-0.9694,-0.9694,-0.9693,-0.9693,0,-0.967,-0.9669,-0.968,-0.9687,-0.9697,-0.9679,-0.9683,-0.9693,-0.971,-0.9712,-0.9722,-0.974,-0.9753,-0.9748,-0.976,-0.9773,-0.9765,-0.9777,-0.9776,-0.9777,-0.9711,-0.9704,-0.9783,-0.9783,-0.9783,-0.9783,-0.9783,-0.9783,-0.9712,-0.9737,-0.973,-0.9757,-0.9756,-0.9773,-0.9777,-0.9782,-0.9784,-0.9805,-0.9816,-0.9812,-0.9812,-0.9824,-0.9836,-0.9834,-0.9841,-0.9855,-0.9851,-0.979,-0.9781,-0.9773,-0.9766,-0.9856,-0.9856,-0.9915,-0.9916,-0.9916]},{"header":{"parameterUnit":"m.s-1","parameterCategory":1,"la1":30.2991,"la2":30.254,"lo1":-89.0895,"lo2":-89.0444,"dy":0.0017,"dx":0.0017,"nx":28,"ny":28,"refTime":"2023-10-11T03:00:00:Z","depth":0,"parameterNumber":3,"parameterNumberName":"V-component_of_WINDS"},"data":[0,0,0,0,0,0,0,0,0,0,0,0,0,0,0,0,0,0,0,0,0,0,0,0,0,0,0,0,0,0,0,0,0,0,0,0,0,0,0,0,0,0,0,0,0,0,0,0,0,0,0,0,0,0,0,0,0,0,1.5852,1.5851,0,1.5759,1.5758,1.5757,1.5734,1.5734,1.5735,1.5736,1.5634,1.5631,1.5628,0,0,0,0,0,0,0,0,0,0,0,0,0,1.6007,1.6004,1.5852,1.5851,1.585,1.5759,1.5758,1.5756,1.5734,1.5734,1.5735,1.5736,1.5635,1.5631,1.5628,0,0,0,0,0,0,0,0,0,0,0,0,0,1.5929,1.6003,1.5853,1.5828,1.5825,1.5759,1.5758,1.5756,1.5734,1.5734,1.5735,1.5736,1.5637,1.5632,1.5627,1.5578,0,0,1.5612,1.561,0,0,0,0,0,0,0,0,1.5933,1.5923,1.5833,1.583,1.5826,1.5759,1.5775,1.5696,1.5733,1.5768,1.5736,1.5737,1.5675,1.5667,1.5647,1.5573,1.5569,1.5611,1.5608,1.5606,1.5605,0,0,0,0,0,0,0,1.5939,1.5927,1.5815,1.5831,1.5827,1.582,1.581,1.576,1.5717,1.5765,1.5763,1.5753,1.5673,1.5652,1.5644,1.5567,1.5612,1.5607,1.5604,1.5602,1.5447,1.5446,0,0,0,0,0,0,1.5949,1.5932,1.5818,1.5812,1.5883,1.5816,1.5805,1.5779,1.5718,1.5709,1.5752,1.5752,1.566,1.565,1.5641,1.5578,1.5606,1.5602,1.5599,1.5448,1.5447,1.5446,0,0,0,0,0,0,1.5953,1.5939,1.5822,1.5872,1.5856,1.5813,1.5784,1.5777,1.5756,1.5708,1.5699,1.5738,1.566,1.5648,1.5594,1.5574,1.56,1.5595,1.545,1.5448,1.5446,1.5453,0,0,0,0,0,0,1.5957,1.5941,1.5922,1.5871,1.5854,1.5778,1.5783,1.5775,1.5748,1.5747,1.5693,1.5685,1.566,1.5601,1.5589,1.5568,1.5591,1.5451,1.5449,1.5447,1.5454,1.5451,1.5449,0,0,0,0,0,1.5963,1.5927,1.5922,1.5908,1.583,1.5777,1.5767,1.574,1.5747,1.5727,1.5696,1.5686,1.5579,1.5596,1.5582,1.5559,1.5452,1.5449,1.5447,1.5455,1.5452,1.5449,0,0,0,0,0,0,1.5975,1.592,1.5913,1.586,1.5824,1.5773,1.5748,1.5738,1.5697,1.5698,1.5665,1.5653,1.5601,1.5575,1.5595,1.5508,1.5515,1.551,1.5526,1.5523,1.5521,1.5527,1.5587,0,0,0,0,0,1.5972,1.5935,1.5888,1.5846,1.5828,1.5791,1.5767,1.575,1.571,1.5694,1.5659,1.5619,1.5576,1.5548,1.5506,1.5451,1.5438,1.5428,1.5426,1.5424,1.5419,1.5387,1.5381,1.5437,1.5437,1.5437,0,0,1.5964,1.593,1.5908,1.5847,1.5817,1.5778,1.5778,1.5737,1.5707,1.5687,1.5634,1.5608,1.5561,1.5506,1.548,1.5482,1.5401,1.5421,1.542,1.5415,1.5383,1.5378,1.5373,1.5435,1.5436,1.5436,0,0,1.593,1.5901,1.5862,1.5832,1.5787,1.5763,1.5754,1.5705,1.5687,1.5634,1.5619,1.5582,1.5509,1.5476,1.545,1.5404,1.5393,1.5392,1.5378,1.5347,1.5342,1.5338,1.5321,1.5315,1.5387,1.5387,1.5387,0,1.5925,1.5867,1.5843,1.5802,1.5775,1.5759,1.5718,1.569,1.5632,1.5613,1.5618,1.5526,1.5493,1.543,1.5419,1.5399,1.5386,1.5396,1.5346,1.5341,1.5337,1.5319,1.5313,1.5387,1.5387,1.5387,1.5387,0,1.5863,1.5823,1.5797,1.5744,1.5715,1.5674,1.5642,1.5615,1.5601,1.5577,1.5522,1.5483,1.5432,1.5417,1.5402,1.5351,1.5354,1.5352,1.5359,1.5332,1.5315,1.5308,1.5387,1.5387,1.5387,1.5387,0,0,1.5832,1.5767,1.5758,1.5733,1.5683,1.565,1.5609,1.5562,1.5538,1.55,1.5463,1.5402,1.5401,1.5371,1.5353,1.5326,1.5291,1.5327,1.5326,1.532,1.523,1.523,1.5223,1.5284,1.5283,1.5282,1.5234,0,1.579,1.5717,1.5694,1.5632,1.5594,1.5578,1.5542,1.5506,1.5482,1.5445,1.5418,1.5375,1.5377,1.5359,1.5332,1.5301,1.5272,1.5304,1.5247,1.5246,1.5258,1.5215,1.5214,1.5171,1.5227,1.5226,1.5225,0,1.5731,1.5693,1.5628,1.5582,1.5565,1.5533,1.5488,1.5453,1.5412,1.5396,1.5364,1.5348,1.5303,1.5314,1.525,1.5273,1.5248,1.523,1.5227,1.5219,1.5232,1.5203,1.5156,1.5149,1.5215,1.5216,1.5216,0,1.5713,1.5645,1.5598,1.5577,1.5523,1.5501,1.5477,1.5437,1.541,1.537,1.5352,1.5307,1.5281,1.5246,1.5217,1.5229,1.5155,1.5165,1.5139,1.514,1.5122,1.5123,1.5069,1.511,1.5111,1.5111,1.5111,0,1.5667,1.5627,1.5589,1.5559,1.5514,1.5488,1.5443,1.5418,1.5383,1.5347,1.533,1.5297,1.5263,1.5224,1.5202,1.5151,1.514,1.5125,1.5119,1.5125,1.5127,1.5107,1.5108,1.5109,1.5109,1.511,1.511,0,1.5638,1.5611,1.5557,1.5511,1.5499,1.5467,1.5427,1.5397,1.5373,1.5328,1.5315,1.5277,1.5231,1.52,1.5141,1.5126,1.507,1.5066,1.5084,1.5081,1.5057,1.5059,1.4985,1.4974,1.5025,1.5025,1.5025,0,1.5609,1.5579,1.553,1.5506,1.5482,1.5443,1.5416,1.5389,1.5361,1.5312,1.5288,1.5241,1.5202,1.5128,1.5094,1.5048,1.5041,1.5019,1.5034,1.5041,1.5039,1.504,1.5036,1.5016,1.5015,1.5015,1.5015,0,1.5561,1.555,1.5512,1.5469,1.5438,1.5403,1.5367,1.5348,1.5315,1.5284,1.5238,1.5208,1.5148,1.51,1.5052,1.5025,1.5014,1.5011,1.5002,1.5007,1.5018,1.501,1.5075,1.5012,1.5012,1.5012,1.5013,1.5013,1.553,1.5502,1.5463,1.5422,1.5393,1.536,1.533,1.5303,1.5264,1.5214,1.5201,1.5152,1.5111,1.5045,1.5018,1.4978,1.498,1.4968,1.4964,1.4961,1.496,1.5027,1.4969,1.4969,1.4969,1.4969,1.497,0,1.548,1.5455,1.5417,1.5369,1.5335,1.5331,1.5291,1.5263,1.5221,1.5185,1.5147,1.5093,1.5048,1.5011,1.4964,1.4939,1.4932,1.4927,1.4928,1.4921,1.4962,1.4973,1.4933,1.4933,1.4933,1.4933,1.4933,1.4934,1.5449,1.5401,1.5385,1.5322,1.5296,1.5249,1.5227,1.5197,1.5168,1.5109,1.5072,1.5049,1.5012,1.4962,1.492,1.491,1.4892,1.4888,1.4877,1.4915,1.4919,1.4922,1.4933,1.4885,1.4885,1.4839,1.4839,1.4838]}]]